This demonstration page uses our WeatherBlox Daily Observations layout. Learn more.

Left ArrowRight Arrow

47.50024, -111.30081

Hourly Observations for March 10, 2015

Temp ( °F °C ) Dew Point ( °F °C ) Humidity (%) Winds ( mph kmh ) Pressure ( in mb ) Visibility ( mi km ) Precip ( " mm )
12:53 am 00:53 Clear 37 2.8 21 -6.1 52 52 WSW 13 20 29.92 1013 10 16 0.00 0.00
1:53 am 01:53 Clear 37 2.8 21 -6.1 52 52 SSW 13 20 29.95 1014 10 16 0.00 0.00
2:53 am 02:53 Clear 35 1.7 21 -6.1 57 57 SSW 12 19 29.95 1014 10 16 0.00 0.00
3:53 am 03:53 Clear 35 1.7 21 -6.1 57 57 SSW 14 22 29.96 1015 10 16 0.00 0.00
4:53 am 04:53 Clear 32 0 20 -6.7 61 61 SSW 9 15 29.98 1015 10 16 0.00 0.00
5:53 am 05:53 Clear 35 1.7 21 -6.1 57 57 SSW 13 20 29.97 1015 10 16 0.00 0.00
6:53 am 06:53 Clear 34 1.1 20 -6.7 56 56 SSW 13 20 30.00 1016 10 16 0.00 0.00
7:53 am 07:53 Sunny 35 1.7 19 -7.2 52 52 S 12 19 30.02 1017 10 16 0.00 0.00
8:53 am 08:53 Sunny 42 5.6 20 -6.7 41 41 S 8 13 30.02 1017 10 16 0.00 0.00
9:53 am 09:53 Sunny 49 9.4 19 -7.2 31 31 SSW 12 19 30.01 1016 10 16 0.00 0.00
10:53 am 10:53 Sunny 53 11.7 21 -6.1 28 28 SW 13 20 30.00 1016 10 16 0.00 0.00
11:53 am 11:53 Sunny 58 14.4 17 -8.3 20 20 WSW 20 31 29.98 1015 10 16 0.00 0.00
12:53 pm 12:53 Sunny 61 16.1 14 -10 16 16 WSW 16 26 29.97 1015 10 16 0.00 0.00
1:53 pm 13:53 Sunny 62 16.7 16 -8.9 17 17 SW 20 31 29.94 1014 10 16 0.00 0.00
2:53 pm 14:53 Sunny 63 17.2 17 -8.3 17 17 WSW 18 30 29.92 1013 10 16 0.00 0.00
3:53 pm 15:53 Sunny 65 18.3 15 -9.4 14 14 W 20 31 29.90 1013 10 16 0.00 0.00
4:53 pm 16:53 Sunny 65 18.3 16 -8.9 15 15 SW 18 30 29.91 1013 10 16 0.00 0.00
5:53 pm 17:53 Sunny 63 17.2 16 -8.9 16 16 W 13 20 29.92 1013 10 16 0.00 0.00
6:53 pm 18:53 Sunny 57 13.9 20 -6.7 24 24 WSW 9 15 29.93 1014 10 16 0.00 0.00
7:53 pm 19:53 Clear 44 6.7 20 -6.7 38 38 SW 9 15 29.97 1015 10 16 0.00 0.00
8:53 pm 20:53 Clear 41 5 20 -6.7 43 43 SSW 10 17 29.97 1015 10 16 0.00 0.00
9:53 pm 21:53 Clear 41 5 21 -6.1 45 45 SSW 10 17 29.96 1015 10 16 0.00 0.00
10:53 pm 22:53 Clear 42 5.6 21 -6.1 43 43 S 9 15 29.95 1014 10 16 0.00 0.00
11:53 pm 23:53 Clear 44 6.7 21 -6.1 40 40 SSW 13 20 29.92 1013 10 16 0.00 0.00

Powered by AerisWeather